When you browse on this site, cookies collect data to enhance your experience and personalize the content and advertising you see.
Visit our Privacy Policy to learn more. By continuing to use the site, you agree to this use of cookies and data.
  • In United Kingdom
  • List of Countries
  • For 7 days
  • Water Temperature
  • Satellite Maps
  • Weather Map
  • Weather Widgets
  • user-avatar
    Login

    Hourly Weather Gitega

    Today, 21 January, Monday

    Time Temperature Precipitation Wind Pressure Humidity
    00:00 +16°C° 0.4 mm 2 mps 624 mmHg 87%
    01:00 +16°C° 0.4 mm 1 mps 624 mmHg 86%
    02:00 +16°C° 0 mm 1 mps 624 mmHg 85%
    03:00 +16°C° 0.2 mm 1 mps 624 mmHg 84%
    04:00 +16°C° 0.2 mm 1 mps 624 mmHg 83%
    05:00 +16°C° 0.2 mm 1 mps 624 mmHg 82%
    06:00 +18°C° 0 mm 1 mps 625 mmHg 78%
    07:00 +18°C° 0 mm 2 mps 625 mmHg 74%
    08:00 +20°C° 0 mm 2 mps 626 mmHg 68%
    09:00 +21°C° 0.1 mm 2 mps 626 mmHg 62%
    10:00 +24°C° 0.1 mm 2 mps 627 mmHg 56%
    11:00 +26°C° 0.1 mm 2 mps 627 mmHg 49%
    12:00 +27°C° 0.1 mm 2 mps 626 mmHg 47%
    13:00 +27°C° 0.1 mm 2 mps 626 mmHg 45%
    14:00 +25°C° 0 mm 1 mps 625 mmHg 51%
    15:00 +25°C° 0 mm 1 mps 625 mmHg 52%
    16:00 +25°C° 0 mm 1 mps 625 mmHg 53%
    17:00 +23°C° 0 mm 0 mps 624 mmHg 55%
    18:00 +23°C° 0 mm 1 mps 624 mmHg 61%
    19:00 +21°C° 0 mm 1 mps 624 mmHg 68%
    20:00 +19°C° 0 mm 1 mps 623 mmHg 75%
    21:00 +18°C° 0 mm 1 mps 624 mmHg 76%
    22:00 +18°C° 0 mm 1 mps 624 mmHg 76%
    23:00 +18°C° 0 mm 1 mps 624 mmHg 76%

    Tomorrow, 22 January, Tuesday

    Time Temperature Precipitation Wind Pressure Humidity
    00:00 +18°C° 0 mm 1 mps 624 mmHg 76%
    01:00 +18°C° 0 mm 1 mps 624 mmHg 76%
    02:00 +16°C° 0 mm 1 mps 623 mmHg 76%
    03:00 +16°C° 0 mm 1 mps 623 mmHg 76%
    04:00 +16°C° 0 mm 1 mps 623 mmHg 77%
    05:00 +16°C° 0 mm 1 mps 623 mmHg 77%
    06:00 +18°C° 0 mm 1 mps 623 mmHg 74%
    07:00 +19°C° 0 mm 1 mps 624 mmHg 70%
    08:00 +20°C° 0 mm 1 mps 625 mmHg 67%
    09:00 +23°C° 0 mm 2 mps 625 mmHg 59%
    10:00 +25°C° 0 mm 2 mps 626 mmHg 51%
    11:00 +28°C° 0 mm 2 mps 626 mmHg 42%
    12:00 +28°C° 0 mm 2 mps 626 mmHg 42%
    13:00 +28°C° 0 mm 2 mps 625 mmHg 42%
    14:00 +29°C° 0 mm 2 mps 625 mmHg 41%
    15:00 +27°C° 0.1 mm 2 mps 624 mmHg 49%
    16:00 +25°C° 0.1 mm 1 mps 623 mmHg 56%
    17:00 +24°C° 0.1 mm 1 mps 622 mmHg 64%
    18:00 +23°C° 0.2 mm 1 mps 622 mmHg 67%
    19:00 +22°C° 0.2 mm 1 mps 622 mmHg 70%
    20:00 +21°C° 0.2 mm 1 mps 623 mmHg 73%
    21:00 +20°C° 0.1 mm 1 mps 623 mmHg 75%
    22:00 +20°C° 0.1 mm 1 mps 623 mmHg 78%
    23:00 +19°C° 0.1 mm 1 mps 624 mmHg 80%

    Day after tomorrow, 23 January, Wednesday

    Time Temperature Precipitation Wind Pressure Humidity
    00:00 +19°C° 0.2 mm 1 mps 623 mmHg 82%
    01:00 +18°C° 0.2 mm 1 mps 623 mmHg 83%
    02:00 +16°C° 0.2 mm 0 mps 622 mmHg 84%
    03:00 +18°C° 0 mm 1 mps 622 mmHg 84%
    04:00 +18°C° 0 mm 1 mps 622 mmHg 83%
    05:00 +18°C° 0 mm 1 mps 622 mmHg 83%
    06:00 +19°C° 0 mm 1 mps 623 mmHg 78%
    07:00 +20°C° 0 mm 1 mps 623 mmHg 73%
    08:00 +22°C° 0 mm 1 mps 624 mmHg 69%
    09:00 +24°C° 0.1 mm 1 mps 625 mmHg 61%
    10:00 +26°C° 0.1 mm 2 mps 625 mmHg 53%
    11:00 +28°C° 0.1 mm 2 mps 626 mmHg 46%
    12:00 +27°C° 0.3 mm 2 mps 625 mmHg 50%
    13:00 +26°C° 0.3 mm 2 mps 624 mmHg 55%
    14:00 +25°C° 0.3 mm 2 mps 623 mmHg 60%
    15:00 +25°C° 1 mm 2 mps 622 mmHg 66%
    16:00 +24°C° 1 mm 1 mps 622 mmHg 71%
    17:00 +23°C° 1 mm 1 mps 621 mmHg 77%
    18:00 +22°C° 0.4 mm 1 mps 622 mmHg 79%
    19:00 +20°C° 0.4 mm 1 mps 622 mmHg 82%
    20:00 +19°C° 0.4 mm 1 mps 623 mmHg 84%
    21:00 +19°C° 0.1 mm 1 mps 623 mmHg 85%
    22:00 +19°C° 0.1 mm 1 mps 623 mmHg 86%
    23:00 +19°C° 0.1 mm 1 mps 624 mmHg 87%

    24 January, Thursday

    Time Temperature Precipitation Wind Pressure Humidity
    00:00 +18°C° 0 mm 1 mps 623 mmHg 86%
    01:00 +18°C° 0 mm 1 mps 623 mmHg 86%
    02:00 +18°C° 0 mm 1 mps 622 mmHg 86%
    03:00 +16°C° 0 mm 1 mps 622 mmHg 84%
    04:00 +16°C° 0 mm 1 mps 622 mmHg 83%
    05:00 +16°C° 0 mm 2 mps 622 mmHg 82%
    06:00 +18°C° 0 mm 1 mps 623 mmHg 78%
    07:00 +20°C° 0 mm 1 mps 624 mmHg 73%
    08:00 +21°C° 0 mm 1 mps 624 mmHg 69%
    09:00 +24°C° 0 mm 1 mps 625 mmHg 61%
    10:00 +26°C° 0 mm 1 mps 626 mmHg 53%
    11:00 +29°C° 0 mm 1 mps 626 mmHg 45%
    12:00 +28°C° 0.3 mm 2 mps 625 mmHg 48%
    13:00 +27°C° 0.3 mm 2 mps 624 mmHg 51%
    14:00 +27°C° 0.3 mm 2 mps 623 mmHg 53%
    15:00 +26°C° 0.6 mm 2 mps 623 mmHg 59%
    16:00 +25°C° 0.6 mm 2 mps 622 mmHg 65%
    17:00 +24°C° 0.6 mm 2 mps 622 mmHg 70%
    18:00 +21°C° 0.2 mm 2 mps 622 mmHg 76%
    19:00 +21°C° 0.2 mm 1 mps 622 mmHg 83%
    20:00 +19°C° 0.2 mm 1 mps 623 mmHg 89%
    21:00 +19°C° 0 mm 1 mps 623 mmHg 90%
    22:00 +18°C° 0 mm 1 mps 623 mmHg 92%
    23:00 +18°C° 0 mm 1 mps 623 mmHg 93%

    25 January, Friday

    Time Temperature Precipitation Wind Pressure Humidity
    00:00 +16°C° 0 mm 1 mps 623 mmHg 93%
    01:00 +16°C° 0 mm 1 mps 622 mmHg 93%
    02:00 +16°C° 0 mm 1 mps 622 mmHg 93%
    03:00 +16°C° 0 mm 1 mps 622 mmHg 93%
    04:00 +16°C° 0 mm 1 mps 622 mmHg 92%
    05:00 +15°C° 0 mm 1 mps 622 mmHg 92%
    06:00 +18°C° 0.1 mm 1 mps 623 mmHg 87%
    07:00 +19°C° 0.1 mm 1 mps 624 mmHg 82%
    08:00 +21°C° 0.1 mm 1 mps 626 mmHg 77%
    09:00 +22°C° 0.3 mm 1 mps 626 mmHg 72%
    10:00 +23°C° 0.3 mm 2 mps 626 mmHg 67%
    11:00 +24°C° 0.3 mm 3 mps 626 mmHg 62%
    12:00 +25°C° 0.2 mm 3 mps 625 mmHg 59%
    13:00 +25°C° 0.2 mm 3 mps 625 mmHg 57%
    14:00 +26°C° 0.2 mm 2 mps 624 mmHg 55%
    15:00 +25°C° 0.3 mm 2 mps 624 mmHg 61%
    16:00 +24°C° 0.3 mm 2 mps 623 mmHg 66%
    17:00 +23°C° 0.3 mm 2 mps 623 mmHg 72%
    18:00 +20°C° 0.1 mm 2 mps 623 mmHg 78%
    19:00 +20°C° 0.1 mm 1 mps 623 mmHg 85%
    20:00 +16°C° 0.1 mm 0 mps 623 mmHg 91%
    21:00 +16°C° 0 mm 0 mps 623 mmHg 91%
    22:00 +18°C° 0 mm 1 mps 623 mmHg 91%
    23:00 +16°C° 0 mm 1 mps 623 mmHg 90%

    26 January, Saturday

    Time Temperature Precipitation Wind Pressure Humidity
    00:00 +16°C° 0 mm 1 mps 623 mmHg 90%
    01:00 +16°C° 0 mm 1 mps 623 mmHg 89%
    02:00 +16°C° 0 mm 1 mps 622 mmHg 89%
    03:00 +16°C° 0 mm 1 mps 622 mmHg 88%
    04:00 +15°C° 0 mm 1 mps 622 mmHg 87%
    05:00 +15°C° 0 mm 1 mps 622 mmHg 86%
    06:00 +18°C° 0 mm 1 mps 623 mmHg 81%
    07:00 +19°C° 0 mm 1 mps 624 mmHg 76%
    08:00 +21°C° 0 mm 1 mps 625 mmHg 71%
    09:00 +23°C° 0 mm 1 mps 625 mmHg 64%
    10:00 +25°C° 0 mm 2 mps 626 mmHg 57%
    11:00 +27°C° 0 mm 3 mps 626 mmHg 50%
    12:00 +27°C° 0 mm 2 mps 626 mmHg 48%
    13:00 +28°C° 0 mm 2 mps 625 mmHg 45%
    14:00 +29°C° 0 mm 2 mps 625 mmHg 43%
    15:00 +28°C° 0.1 mm 2 mps 624 mmHg 47%
    16:00 +27°C° 0.1 mm 2 mps 624 mmHg 51%
    17:00 +26°C° 0.1 mm 2 mps 623 mmHg 55%
    18:00 +24°C° 0 mm 2 mps 623 mmHg 66%
    19:00 +21°C° 0 mm 1 mps 623 mmHg 76%
    20:00 +19°C° 0 mm 1 mps 622 mmHg 87%
    21:00 +18°C° 0 mm 1 mps 623 mmHg 87%
    22:00 +18°C° 0 mm 1 mps 623 mmHg 86%
    23:00 +18°C° 0 mm 1 mps 623 mmHg 86%
    Show more